COSMOS 2522 (752)

Last updated on June 24, 2019, 3:41 a.m. UTC

1 42939U 17055A   19174.55019738 -.00000029  00000-0  00000+0 0  9996
2 42939  64.4939 279.5125 0007232 238.5970   6.3808  2.13101853 13624
UTC
Height (km)
Latitude
Longitude
Inclination
Orbital Period
UTC large
Height (km)
Speed (km/s)
/
Latitude / Longitude
Inclination (degrees)
Orbital Period (minutes)
Azimuth
Elevation
Range (km)
Doppler Factor
iOS Compass Heading
iOS Angle

Next 30 passes for location: Hong Kong

Rise time Rise Azimuth (degrees) Set time Set Azimuth (degrees) Duration Max altitude (degrees)

No matching passes for this satellites